SPACEBEE-4 1 43139U 18004AE 21015.77578043 .00002665 00000-0 99910-4 0 9994 2 43139 97.4333 94.4457 0008529 32.4675 327.7087 15.28115933167562 SPACEBEE-3 1 43140U 18004AF 21015.77017181 .00003441 00000-0 12323-3 0 9992 2 43140 97.4355 95.5225 0007950 30.3257 329.8442 15.29420963167621 SPACEBEE-2 1 43141U 18004AG 21015.69986510 .00003637 00000-0 12836-3 0 9991 2 43141 97.4372 95.8682 0007844 29.5291 330.6391 15.29867093167634 SPACEBEE-1 1 43142U 18004AH 21015.80520786 .00003965 00000-0 13741-3 0 9994 2 43142 97.4378 96.3862 0007691 28.4076 331.7583 15.30401180167667 SPACEBEE-7 1 43816U 18099BL 21015.45665822 .00000228 00000-0 25435-4 0 9991 2 43816 97.6865 89.7883 0013385 184.8492 175.2601 14.95925415115187 SPACEBEE-5 1 43817U 18099BM 21015.77294110 .00000719 00000-0 67647-4 0 9991 2 43817 97.6945 90.9512 0013119 182.7770 177.3381 14.96863150115266 SPACEBEE-6 1 43818U 18099BN 21015.45451344 .00000342 00000-0 35425-4 0 9992 2 43818 97.6887 90.0486 0013335 184.7529 175.3568 14.96211270115341 SPACEBEE-9 1 44370U 19037F 21015.66446973 .00012797 00000-0 23555-3 0 9991 2 44370 45.0047 5.3771 0011857 15.7085 344.4172 15.49178930 87435 SPACEBEE-8 1 44371U 19037G 21015.63190987 .00043674 00000-0 49041-3 0 9996 2 44371 45.0042 347.3720 0009745 71.4110 288.7844 15.61919612 87648 SPACEBEE-21 1 46300U 20061AE 21015.78618641 .00001226 00000-0 76677-4 0 9990 2 46300 97.5061 92.4865 0001868 131.1429 228.9963 15.11266831 20231 SPACEBEE-20 1 46301U 20061AF 21015.78533270 .00001259 00000-0 78580-4 0 9996 2 46301 97.5066 92.4915 0001874 130.2491 229.8904 15.11281487 20238 SPACEBEE-15 1 46302U 20061AG 21015.45184064 .00001414 00000-0 87697-4 0 9996 2 46302 97.5062 92.1637 0001783 127.5512 232.5881 15.11333595 20182 SPACEBEE-19 1 46303U 20061AH 21015.78429413 .00001291 00000-0 80410-4 0 9992 2 46303 97.5063 92.4903 0001871 129.5474 230.5922 15.11302469 20236 SPACEBEE-18 1 46304U 20061AJ 21015.78423279 .00001246 00000-0 77775-4 0 9997 2 46304 97.5062 92.4898 0001858 128.6256 231.5140 15.11298107 20238 SPACEBEE-10 1 46305U 20061AK 21015.77863449 .00001644 00000-0 10103-3 0 9997 2 46305 97.5063 92.4966 0001768 131.1177 229.0206 15.11442865 20234 SPACEBEE-17 1 46306U 20061AL 21015.65011478 .00001356 00000-0 84249-4 0 9995 2 46306 97.5063 92.3636 0001867 128.7118 231.4280 15.11335560 20259 SPACEBEE-11 1 46307U 20061AM 21015.64739325 .00001577 00000-0 97134-4 0 9995 2 46307 97.5063 92.3660 0001830 129.5697 230.5695 15.11406298 20211 SPACEBEE-16 1 46308U 20061AN 21015.45096113 .00001438 00000-0 89092-4 0 9996 2 46308 97.5066 92.1706 0001858 128.3386 231.8011 15.11346409 20185 SPACEBEE-12 1 46309U 20061AP 21015.64792632 .00001519 00000-0 93785-4 0 9991 2 46309 97.5063 92.3652 0001823 129.0394 231.0999 15.11389226 20219 SPACEBEE-13 1 46310U 20061AQ 21015.45005934 .00001521 00000-0 93958-4 0 9999 2 46310 97.5065 92.1707 0001833 128.4350 231.7044 15.11369447 20220 SPACEBEE-14 1 46311U 20061AR 21015.78083215 .00001316 00000-0 81794-4 0 9991 2 46311 97.5064 92.4964 0001842 128.1004 232.0392 15.11367739 20267 SPACEBEE-34 1 46933U 20085E 21015.82124455 .00004741 00000-0 21142-3 0 9999 2 46933 97.3738 155.2950 0017547 102.0775 258.2427 15.21741573 8629 SPACEBEE-35 1 46934U 20085F 21015.49286850 .00004562 00000-0 20374-3 0 9998 2 46934 97.3740 154.9728 0017599 103.1741 257.1458 15.21716187 8573 SPACEBEE-36 1 46935U 20085G 21015.82181078 .00004527 00000-0 20220-3 0 9993 2 46935 97.3738 155.2951 0017360 102.2041 258.1140 15.21716232 8628 SPACEBEE-37 1 46936U 20085H 21015.62565354 .00004325 00000-0 19358-3 0 9991 2 46936 97.3743 155.0995 0017435 102.7642 257.5537 15.21666276 8597 SPACEBEE-38 1 46937U 20085J 21015.62677472 .00004223 00000-0 18936-3 0 9995 2 46937 97.3721 155.0955 0017368 102.1469 258.1712 15.21625334 8598 SPACEBEENZ-3 1 46938U 20085K 21015.82894527 .00002773 00000-0 12626-3 0 9998 2 46938 97.3737 155.2858 0017736 100.5426 259.7810 15.21386371 8629 SPACEBEENZ-4 1 46939U 20085L 21015.63212423 .00002644 00000-0 12061-3 0 9997 2 46939 97.3736 155.0902 0017834 100.4837 259.8432 15.21362716 8595 SPACEBEENZ-5 1 46941U 20085N 21015.63311272 .00002719 00000-0 12409-3 0 9991 2 46941 97.3729 155.0865 0017345 100.2668 260.0557 15.21330401 8593 SPACEBEENZ-6 1 46942U 20085P 21015.83047935 .00002607 00000-0 11907-3 0 9994 2 46942 97.3734 155.2822 0017385 99.9486 260.3713 15.21331460 8628 SPACEBEE-33 1 46944U 20085R 21015.78215761 .00003925 00000-0 17973-3 0 9997 2 46944 97.3713 155.1836 0016147 109.6516 250.6466 15.20958456 8614 SPACEBEE-32 1 46945U 20085S 21015.65135668 .00003949 00000-0 18091-3 0 9999 2 46945 97.3726 155.0541 0016148 110.1903 250.1084 15.20941366 8599 SPACEBEE-30 1 46946U 20085T 21015.65147411 .00004064 00000-0 18604-3 0 9998 2 46946 97.3728 155.0556 0016288 110.3657 249.9351 15.20945635 8597 SPACEBEE-31 1 46947U 20085U 21015.84917110 .00004136 00000-0 18935-3 0 9998 2 46947 97.3726 155.2475 0016099 109.3370 250.9608 15.20937522 8625 SPACEBEE-28 1 46948U 20085V 21015.65190978 .00004186 00000-0 19157-3 0 9995 2 46948 97.3728 155.0575 0016217 111.5582 248.7387 15.20942501 8597 SPACEBEE-29 1 46949U 20085W 21015.78327257 .00004184 00000-0 19145-3 0 9997 2 46949 97.3732 155.1863 0016332 111.0190 249.2810 15.20948144 8611 SPACEBEE-27 1 46950U 20085X 21015.78434248 .00004314 00000-0 19741-3 0 9995 2 46950 97.3723 155.1851 0016338 111.0151 249.2837 15.20927155 8611 SPACEBEE-25 1 46951U 20085Y 21015.78392683 .00004627 00000-0 21122-3 0 9995 2 46951 97.3735 155.1884 0016509 112.5733 247.7256 15.20968116 8613 SPACEBEE-24 1 46952U 20085Z 21015.78462048 .00004419 00000-0 20212-3 0 9997 2 46952 97.3723 155.1887 0016450 112.4725 247.8254 15.20930362 8610 SPACEBEE-22 1 46953U 20085AA 21015.65242889 .00004545 00000-0 20758-3 0 9998 2 46953 97.3727 155.0591 0016474 112.7084 247.5907 15.20960672 8599 SPACEBEE-26 1 46956U 20085AD 21015.65314460 .00004135 00000-0 18938-3 0 9998 2 46956 97.3724 155.0588 0016488 112.9503 247.3476 15.20915959 8517 SPACEBEENZ-2 1 46957U 20085AE 21015.63074997 .00002888 00000-0 13124-3 0 9990 2 46957 97.3742 155.0947 0017751 101.0533 259.2725 15.21414236 8559 SPACEBEE-39 1 46958U 20085AF 21015.82475370 .00004125 00000-0 18520-3 0 9993 2 46958 97.3732 155.2872 0017363 101.3249 258.9934 15.21594679 7922 SPACEBEENZ-1 1 46959U 20085AG 21015.82743120 .00003037 00000-0 13773-3 0 9991 2 46959 97.3743 155.2901 0017809 100.0737 260.2504 15.21443561 8104 SPACEBEE-23 1 46960U 20085AH 21015.78416587 .00004579 00000-0 20914-3 0 9999 2 46960 97.3739 155.1894 0016565 111.6271 248.6729 15.20954408 7744